TimeEST,TemperatureF,Dew PointF,Humidity,Sea Level PressureIn,VisibilityMPH,Wind Direction,Wind SpeedMPH,Gust SpeedMPH,PrecipitationIn,Events,Conditions,WindDirDegrees,DateUTC
12:53 AM,35.1,30.0,82,30.49,7.0,ENE,5.8,-,N/A,,Clear,60,2012-11-17 05:53:00
1:53 AM,34.0,30.0,85,30.50,7.0,NE,5.8,-,N/A,,Clear,50,2012-11-17 06:53:00
2:53 AM,32.0,28.9,88,30.50,6.0,ENE,4.6,-,N/A,,Clear,70,2012-11-17 07:53:00
3:53 AM,33.1,30.0,89,30.50,6.0,NE,5.8,-,N/A,,Clear,40,2012-11-17 08:53:00
4:53 AM,32.0,28.9,88,30.51,6.0,ENE,5.8,-,N/A,,Clear,60,2012-11-17 09:53:00
5:53 AM,30.0,28.0,92,30.52,5.0,NE,6.9,-,N/A,,Clear,40,2012-11-17 10:53:00
6:53 AM,30.0,28.0,92,30.53,5.0,ENE,6.9,-,N/A,,Clear,60,2012-11-17 11:53:00
7:44 AM,28.4,26.6,93,30.52,2.5,NE,8.1,-,N/A,,Clear,50,2012-11-17 12:44:00
7:53 AM,28.9,28.0,96,30.55,2.5,NE,8.1,-,N/A,,Clear,50,2012-11-17 12:53:00
8:17 AM,32.0,30.2,93,30.53,3.0,ENE,9.2,-,N/A,,Clear,60,2012-11-17 13:17:00
8:53 AM,35.1,33.1,92,30.57,4.0,ENE,9.2,-,N/A,,Clear,60,2012-11-17 13:53:00
9:53 AM,41.0,34.0,76,30.57,6.0,ENE,6.9,-,N/A,,Haze,70,2012-11-17 14:53:00
10:53 AM,48.0,35.1,61,30.57,10.0,East,8.1,-,N/A,,Clear,90,2012-11-17 15:53:00
11:53 AM,51.1,34.0,52,30.56,10.0,NE,6.9,-,N/A,,Clear,50,2012-11-17 16:53:00
12:53 PM,53.1,33.1,47,30.53,10.0,East,4.6,-,N/A,,Clear,80,2012-11-17 17:53:00
1:53 PM,55.0,30.0,38,30.51,10.0,East,9.2,-,N/A,,Clear,90,2012-11-17 18:53:00
2:53 PM,55.9,27.0,33,30.50,10.0,East,8.1,-,N/A,,Clear,80,2012-11-17 19:53:00
3:53 PM,55.9,28.0,34,30.48,10.0,ENE,9.2,-,N/A,,Clear,70,2012-11-17 20:53:00
4:53 PM,53.1,28.0,38,30.49,10.0,East,6.9,-,N/A,,Clear,80,2012-11-17 21:53:00
5:53 PM,48.9,28.9,46,30.50,10.0,ENE,4.6,-,N/A,,Clear,70,2012-11-17 22:53:00
6:53 PM,46.0,28.9,51,30.50,10.0,ENE,4.6,-,N/A,,Clear,70,2012-11-17 23:53:00
7:53 PM,44.1,28.9,55,30.51,10.0,ENE,5.8,-,N/A,,Clear,60,2012-11-18 00:53:00
8:53 PM,42.1,28.9,60,30.50,10.0,NE,5.8,-,N/A,,Clear,50,2012-11-18 01:53:00
9:53 PM,39.9,28.9,65,30.50,10.0,NE,5.8,-,N/A,,Clear,50,2012-11-18 02:53:00
10:53 PM,39.0,28.0,65,30.48,10.0,ENE,6.9,-,N/A,,Clear,60,2012-11-18 03:53:00
11:53 PM,36.0,28.0,73,30.47,10.0,NE,8.1,-,N/A,,Clear,50,2012-11-18 04:53:00